QPF
0.00 0.00 0.00 0.00 0.00 0.00 0.00 0.00 0.00 0.00 0.00 0.00 0.00 0.00 0.00 0.00 0.00 0.00 0.00 0.00 0.00 0.00 0.00 0.00 0.00 0.00 0.00 0.00 0.00 0.00 0.00 0.00 0.00 0.00 0.00 0.01 0.02 0.08 0.19 0.39 0.46 0.47 0.40 0.20
0.00 0.00 0.00 0.00 0.00 0.00 0.00 0.00 0.00 0.00 0.00 0.00 0.00 0.00 0.00 0.00 0.00 0.00 0.00 0.00 0.00 0.00 0.00 0.00 0.00 0.00 0.00 0.00 0.00 0.00 0.00 0.00 0.00 0.00 0.00 0.00 0.00 0.02 0.06 0.11 0.13 0.24 0.40 0.28
0.00 0.00 0.00 0.00 0.00 0.00 0.00 0.00 0.00 0.00 0.00 0.00 0.00 0.00 0.00 0.00 0.00 0.00 0.00 0.00 0.00 0.00 0.00 0.00 0.00 0.00 0.00 0.00 0.00 0.00 0.00 0.00 0.00 0.00 0.00 0.00 0.00 0.00 0.01 0.02 0.04 0.08 0.15 0.13
0.00 0.00 0.00 0.00 0.00 0.00 0.00 0.00 0.00 0.00 0.00 0.00 0.00 0.00 0.00 0.00 0.00 0.00 0.00 0.00 0.00 0.00 0.00 0.00 0.00 0.00 0.00 0.00 0.00 0.00 0.00 0.00 0.00 0.00 0.00 0.00 0.00 0.00 0.00 0.00 0.00 0.02 0.05 0.06
0.02 0.01 0.00 0.00 0.00 0.00 0.00 0.00 0.00 0.00 0.00 0.00 0.00 0.00 0.00 0.00 0.00 0.00 0.00 0.00 0.00 0.00 0.00 0.00 0.00 0.00 0.00 0.00 0.00 0.00 0.00 0.00 0.00 0.00 0.00 0.00 0.00 0.00 0.00 0.00 0.00 0.00 0.00 0.01
0.01 0.02 0.00 0.00 0.00 0.00 0.00 0.00 0.00 0.00 0.00 0.00 0.00 0.00 0.00 0.00 0.00 0.00 0.00 0.00 0.00 0.00 0.00 0.00 0.00 0.00 0.00 0.00 0.00 0.00 0.00 0.00 0.00 0.00 0.00 0.00 0.00 0.00 0.00 0.00 0.00 0.00 0.00 0.00
0.00 0.02 0.01 0.00 0.00 0.00 0.00 0.00 0.00 0.00 0.00 0.00 0.00 0.00 0.00 0.00 0.00 0.00 0.00 0.00 0.00 0.00 0.00 0.00 0.00 0.00 0.00 0.00 0.00 0.00 0.00 0.00 0.00 0.00 0.00 0.00 0.00 0.00 0.00 0.00 0.00 0.00 0.00 0.00
0.00 0.01 0.00 0.00 0.00 0.00 0.00 0.00 0.00 0.00 0.00 0.00 0.00 0.00 0.00 0.00 0.00 0.00 0.00 0.00 0.00 0.00 0.00 0.00 0.00 0.00 0.00 0.00 0.00 0.00 0.00 0.00 0.00 0.00 0.00 0.00 0.00 0.00 0.00 0.00 0.00 0.00 0.00 0.00
0.00 0.00 0.00 0.00 0.00 0.00 0.00 0.00 0.00 0.00 0.00 0.00 0.00 0.00 0.00 0.00 0.00 0.00 0.00 0.00 0.00 0.00 0.00 0.00 0.00 0.00 0.00 0.00 0.00 0.00 0.00 0.00 0.00 0.00 0.00 0.00 0.00 0.00 0.00 0.00 0.00 0.00 0.00 0.00
0.00 0.00 0.00 0.00 0.00 0.00 0.00 0.00 0.00 0.00 0.00 0.00 0.00 0.00 0.00 0.00 0.00 0.00 0.00 0.00 0.00 0.00 0.00 0.00 0.00 0.00 0.00 0.00 0.00 0.00 0.00 0.00 0.00 0.00 0.00 0.00 0.00 0.00 0.00 0.00 0.00 0.00 0.00 0.00
0.00 0.00 0.00 0.00 0.00 0.00 0.00 0.00 0.00 0.00 0.00 0.00 0.00 0.00 0.00 0.00 0.01 0.00 0.00 0.00 0.00 0.00 0.00 0.00 0.00 0.00 0.00 0.00 0.00 0.00 0.00 0.00 0.00 0.00 0.00 0.00 0.00 0.00 0.00 0.00 0.00 0.00 0.00 0.00
0.00 0.00 0.00 0.00 0.00 0.00 0.00 0.00 0.00 0.00 0.00 0.00 0.00 0.00 0.00 0.01 0.01 0.00 0.00 0.00 0.00 0.00 0.00 0.00 0.00 0.00 0.00 0.00 0.00 0.00 0.00 0.00 0.00 0.00 0.00 0.00 0.00 0.00 0.00 0.00 0.00 0.00 0.00 0.00
0.00 0.00 0.00 0.00 0.00 0.00 0.00 0.00 0.00 0.00 0.00 0.00 0.00 0.00 0.00 0.00 0.00 0.00 0.00 0.00 0.00 0.00 0.00 0.00 0.00 0.00 0.00 0.00 0.00 0.00 0.00 0.00 0.00 0.00 0.00 0.00 0.00 0.00 0.00 0.00 0.00 0.00 0.00 0.00
0.00 0.00 0.00 0.00 0.00 0.00 0.00 0.00 0.00 0.00 0.00 0.00 0.00 0.00 0.00 0.00 0.00 0.00 0.00 0.00 0.00 0.00 0.00 0.00 0.00 0.00 0.00 0.00 0.00 0.00 0.00 0.00 0.00 0.00 0.00 0.00 0.00 0.00 0.00 0.00 0.00 0.00 0.00 0.00
0.00 0.00 0.00 0.00 0.00 0.00 0.00 0.00 0.00 0.00 0.00 0.00 0.00 0.00 0.00 0.00 0.00 0.00 0.00 0.00 0.00 0.00 0.00 0.00 0.00 0.00 0.00 0.00 0.00 0.00 0.00 0.00 0.00 0.00 0.00 0.00 0.00 0.00 0.00 0.00 0.00 0.00 0.00 0.00
0.00 0.00 0.00 0.00 0.00 0.00 0.00 0.00 0.00 0.00 0.00 0.00 0.00 0.00 0.00 0.00 0.00 0.00 0.00 0.00 0.00 0.00 0.00 0.00 0.00 0.00 0.00 0.00 0.00 0.00 0.00 0.00 0.00 0.00 0.00 0.00 0.00 0.00 0.00 0.00 0.00 0.00 0.00 0.00
0.00 0.00 0.00 0.00 0.00 0.00 0.00 0.00 0.00 0.00 0.00 0.00 0.00 0.00 0.00 0.00 0.00 0.00 0.00 0.00 0.00 0.00 0.00 0.00 0.00 0.00 0.00 0.00 0.00 0.00 0.00 0.00 0.00 0.00 0.00 0.00 0.00 0.00 0.00 0.00 0.00 0.00 0.00 0.00
0.00 0.00 0.00 0.00 0.00 0.00 0.00 0.00 0.00 0.00 0.00 0.00 0.00 0.00 0.00 0.00 0.00 0.00 0.00 0.00 0.00 0.00 0.00 0.00 0.00 0.00 0.00 0.00 0.00 0.00 0.00 0.00 0.00 0.00 0.00 0.00 0.00 0.00 0.00 0.00 0.00 0.00 0.00 0.00
0.00 0.00 0.00 0.00 0.00 0.00 0.00 0.00 0.00 0.00 0.00 0.00 0.00 0.00 0.00 0.00 0.00 0.00 0.00 0.00 0.00 0.00 0.00 0.00 0.00 0.00 0.00 0.00 0.00 0.00 0.00 0.00 0.00 0.00 0.00 0.00 0.00 0.00 0.00 0.00 0.00 0.00 0.00 0.00
0.00 0.00 0.00 0.00 0.00 0.00 0.00 0.00 0.00 0.00 0.00 0.00 0.00 0.00 0.00 0.00 0.00 0.00 0.00 0.00 0.00 0.00 0.00 0.00 0.00 0.00 0.00 0.00 0.00 0.00 0.00 0.00 0.00 0.00 0.00 0.00 0.00 0.00 0.00 0.00 0.00 0.00 0.00 0.00
0.00 0.00 0.00 0.00 0.00 0.00 0.00 0.00 0.00 0.00 0.00 0.00 0.00 0.00 0.00 0.00 0.00 0.00 0.00 0.00 0.00 0.00 0.00 0.00 0.00 0.00 0.00 0.00 0.00 0.00 0.00 0.00 0.00 0.00 0.00 0.00 0.00 0.00 0.00 0.00 0.00 0.00 0.00 0.00
0.00 0.00 0.00 0.00 0.00 0.00 0.00 0.00 0.00 0.00 0.00 0.00 0.00 0.00 0.00 0.00 0.00 0.00 0.00 0.00 0.00 0.00 0.00 0.00 0.00 0.00 0.00 0.00 0.00 0.00 0.00 0.00 0.00 0.00 0.00 0.00 0.00 0.00 0.00 0.00 0.00 0.00 0.00 0.00
0.00 0.00 0.00 0.00 0.00 0.00 0.00 0.00 0.00 0.00 0.00 0.00 0.00 0.00 0.00 0.00 0.00 0.00 0.00 0.00 0.00 0.00 0.00 0.00 0.00 0.00 0.00 0.00 0.00 0.00 0.00 0.00 0.00 0.00 0.00 0.00 0.00 0.00 0.00 0.00 0.00 0.00 0.00 0.00
0.00 0.00 0.00 0.00 0.00 0.00 0.00 0.00 0.00 0.00 0.00 0.00 0.00 0.00 0.00 0.00 0.00 0.00 0.00 0.00 0.00 0.00 0.00 0.00 0.00 0.00 0.00 0.00 0.00 0.00 0.00 0.00 0.00 0.00 0.00 0.00 0.00 0.00 0.00 0.00 0.00 0.00 0.00 0.00
0.00 0.00 0.00 0.00 0.00 0.00 0.00 0.00 0.00 0.00 0.00 0.00 0.00 0.00 0.00 0.00 0.00 0.00 0.00 0.00 0.00 0.00 0.00 0.00 0.00 0.00 0.00 0.00 0.00 0.00 0.00 0.00 0.00 0.00 0.00 0.00 0.00 0.00 0.00 0.00 0.00 0.00 0.00 0.00
0.00 0.00 0.00 0.00 0.00 0.00 0.00 0.00 0.00 0.00 0.00 0.00 0.00 0.00 0.00 0.00 0.00 0.00 0.00 0.00 0.00 0.00 0.00 0.00 0.00 0.00 0.00 0.00 0.00 0.00 0.00 0.00 0.00 0.00 0.00 0.00 0.00 0.00 0.00 0.00 0.00 0.00 0.00 0.00
0.00 0.00 0.00 0.00 0.00 0.00 0.00 0.00 0.00 0.00 0.00 0.00 0.00 0.00 0.00 0.00 0.00 0.00 0.00 0.00 0.00 0.00 0.00 0.00 0.00 0.00 0.00 0.00 0.00 0.00 0.00 0.00 0.00 0.00 0.00 0.00 0.00 0.00 0.00 0.00 0.00 0.00 0.00 0.00
MSLP
1020.30 1020.22 1020.15 1019.85 1019.91 1019.88 1019.71 1019.15 1019.29 1016.67 1017.63 1017.39 1018.13 1018.91 1019.79 1021.61 1023.49 1024.46 1025.48 1026.45 1026.79 1026.82 1027.07 1026.82 1026.68 1026.55 1026.23 1025.57 1024.97 1024.44 1023.84 1023.35 1023.04 1022.76 1022.26 1021.36 1020.41 1019.92 1018.58 1017.38 1016.47 1015.67 1014.80 1013.96
1020.52 1020.35 1019.99 1019.42 1019.48 1019.01 1018.34 1017.94 1017.68 1017.35 1016.93 1017.05 1017.82 1018.71 1019.83 1021.14 1022.74 1023.61 1024.84 1025.84 1026.36 1026.58 1026.91 1026.87 1026.84 1026.81 1026.49 1025.89 1025.44 1024.94 1024.24 1023.94 1023.45 1022.84 1022.20 1021.71 1021.25 1020.83 1019.90 1019.18 1018.30 1017.61 1016.91 1016.25
1020.12 1020.12 1019.79 1018.72 1017.90 1017.71 1017.38 1017.03 1016.90 1016.52 1016.07 1017.02 1018.04 1018.90 1019.88 1021.14 1022.20 1023.21 1024.52 1025.58 1026.29 1026.74 1027.12 1027.17 1027.26 1027.21 1026.86 1026.41 1026.02 1025.51 1025.10 1024.60 1024.22 1023.55 1022.76 1022.45 1021.97 1021.44 1020.86 1020.76 1020.31 1019.34 1018.26 1017.14
1020.24 1020.32 1019.07 1017.26 1016.97 1016.69 1016.41 1015.95 1016.28 1016.10 1016.27 1017.17 1018.20 1019.38 1020.38 1021.35 1021.99 1023.23 1024.59 1025.50 1026.26 1026.97 1027.48 1027.58 1027.63 1027.43 1027.25 1026.95 1026.55 1026.25 1025.88 1025.38 1025.00 1024.58 1023.82 1023.33 1022.91 1022.51 1022.37 1022.32 1021.77 1021.00 1020.27 1019.68
1020.34 1019.48 1017.95 1016.93 1015.99 1016.11 1016.08 1015.44 1015.27 1015.65 1016.81 1018.09 1019.25 1020.16 1021.23 1021.91 1022.42 1023.37 1024.48 1025.48 1026.25 1027.17 1027.81 1027.91 1027.88 1027.73 1027.59 1027.43 1027.19 1026.96 1026.66 1026.43 1026.00 1025.59 1025.24 1024.61 1024.05 1023.75 1023.42 1023.27 1022.69 1022.51 1022.32 1021.30
1020.24 1019.49 1017.75 1016.29 1016.25 1016.31 1016.53 1015.92 1016.20 1016.53 1017.36 1018.41 1019.56 1020.14 1020.66 1021.99 1022.81 1023.87 1024.97 1025.80 1026.55 1027.41 1027.82 1027.93 1028.06 1027.99 1027.88 1027.86 1027.74 1027.51 1027.27 1027.09 1026.89 1026.40 1026.30 1025.89 1025.40 1025.08 1024.68 1023.99 1023.69 1023.35 1022.96 1022.53
1019.46 1018.92 1017.32 1016.30 1016.39 1016.65 1017.11 1017.27 1017.08 1017.57 1018.09 1019.06 1019.60 1020.15 1020.81 1022.18 1023.45 1024.36 1025.35 1026.20 1027.08 1027.67 1027.97 1028.24 1028.25 1028.19 1028.07 1028.01 1028.02 1028.04 1027.77 1027.47 1027.32 1026.91 1026.54 1026.44 1026.33 1025.96 1025.69 1025.22 1024.74 1024.10 1023.60 1023.33
1018.71 1018.25 1017.03 1016.38 1016.83 1017.18 1017.13 1017.46 1017.65 1018.11 1018.88 1019.47 1020.22 1020.97 1021.71 1022.75 1023.82 1024.84 1025.70 1026.63 1027.37 1027.87 1028.28 1028.54 1028.54 1028.35 1028.30 1028.25 1028.29 1028.25 1028.08 1027.89 1027.70 1027.42 1027.11 1026.79 1026.58 1026.42 1026.23 1025.95 1025.63 1025.35 1024.96 1024.42
1017.37 1016.37 1016.08 1016.14 1016.42 1016.46 1016.73 1017.32 1017.90 1018.36 1019.05 1019.79 1020.66 1021.49 1022.47 1023.37 1024.39 1025.23 1026.02 1026.78 1027.54 1027.97 1028.43 1028.77 1028.83 1028.71 1028.61 1028.72 1028.55 1028.53 1028.41 1028.33 1028.16 1027.92 1027.69 1027.38 1027.01 1026.72 1026.55 1026.43 1026.21 1026.03 1025.60 1025.16
1016.75 1015.75 1015.93 1016.13 1016.53 1016.93 1016.95 1017.57 1017.80 1018.23 1019.03 1019.93 1020.73 1021.81 1022.79 1023.79 1024.68 1025.52 1026.28 1026.96 1027.61 1028.08 1028.52 1028.94 1029.13 1029.15 1029.16 1029.04 1028.83 1028.76 1028.74 1028.64 1028.68 1028.52 1028.29 1028.16 1027.88 1027.61 1027.31 1026.91 1026.64 1026.56 1026.31 1025.93
1015.87 1015.60 1015.93 1015.71 1016.15 1016.80 1017.61 1018.12 1018.45 1018.66 1019.23 1019.93 1020.77 1021.94 1022.76 1023.90 1024.91 1025.65 1026.34 1027.07 1027.69 1028.15 1028.61 1029.11 1029.44 1029.61 1029.55 1029.38 1029.13 1029.03 1029.10 1029.12 1029.06 1029.01 1028.88 1028.69 1028.65 1028.52 1028.29 1028.11 1027.64 1027.20 1026.92 1026.61
1014.81 1014.87 1015.43 1015.53 1015.96 1016.78 1017.66 1018.41 1018.83 1019.08 1019.74 1020.39 1020.96 1021.89 1023.04 1024.22 1024.98 1025.64 1026.42 1027.18 1027.74 1028.34 1028.84 1029.39 1029.77 1029.94 1029.99 1029.84 1029.63 1029.40 1029.45 1029.55 1029.58 1029.50 1029.46 1029.35 1029.19 1029.02 1029.11 1028.79 1028.31 1027.85 1027.49 1027.17
1014.47 1015.12 1015.63 1016.15 1016.58 1017.20 1017.89 1018.64 1019.22 1019.54 1019.95 1020.55 1021.52 1022.26 1023.22 1024.15 1025.02 1025.85 1026.62 1027.19 1027.83 1028.48 1029.13 1029.70 1030.09 1030.39 1030.50 1030.36 1030.20 1030.16 1030.10 1030.09 1030.06 1029.99 1029.89 1029.77 1029.64 1029.53 1029.27 1028.95 1028.70 1028.44 1028.21 1027.87
1014.60 1015.23 1015.83 1016.16 1016.68 1017.42 1018.07 1018.83 1019.49 1020.07 1020.59 1021.15 1021.83 1022.68 1023.43 1024.30 1025.27 1026.01 1026.69 1027.39 1028.14 1028.76 1029.41 1029.95 1030.45 1030.89 1031.04 1030.93 1030.85 1030.88 1030.86 1030.89 1030.69 1030.59 1030.49 1030.37 1030.24 1029.98 1029.68 1029.30 1028.87 1028.65 1028.62 1028.39
1014.74 1015.06 1015.25 1015.79 1016.73 1017.60 1018.39 1019.13 1019.86 1020.51 1021.11 1021.79 1022.41 1022.99 1023.78 1024.63 1025.53 1026.39 1027.19 1027.85 1028.55 1029.21 1029.81 1030.31 1030.75 1031.19 1031.30 1031.22 1031.21 1031.15 1031.00 1031.05 1031.00 1030.89 1030.84 1030.72 1030.43 1030.09 1029.87 1029.66 1029.48 1029.26 1029.12 1028.99
1014.77 1015.26 1015.67 1016.05 1016.76 1017.63 1018.42 1019.16 1019.91 1020.74 1021.45 1022.19 1022.78 1023.47 1024.15 1025.05 1026.04 1026.87 1027.53 1028.17 1028.63 1029.29 1029.88 1030.42 1030.90 1031.29 1031.43 1031.38 1031.34 1031.29 1031.25 1031.29 1031.25 1031.13 1031.00 1030.80 1030.64 1030.45 1030.28 1030.18 1030.13 1030.17 1030.07 1030.12
1014.52 1015.50 1015.87 1016.30 1016.80 1017.48 1018.18 1018.94 1019.84 1020.83 1021.71 1022.41 1023.16 1023.93 1024.77 1025.70 1026.60 1027.37 1028.06 1028.60 1029.05 1029.65 1030.20 1030.57 1031.03 1031.35 1031.58 1031.60 1031.39 1031.37 1031.37 1031.40 1031.55 1031.39 1031.39 1031.33 1031.20 1031.19 1031.16 1031.10 1031.02 1030.93 1030.94 1031.23
1013.50 1013.97 1014.75 1015.31 1016.33 1017.34 1018.36 1019.16 1020.13 1021.14 1021.96 1022.80 1023.72 1024.60 1025.44 1026.20 1026.86 1027.73 1028.35 1028.87 1029.55 1030.25 1030.57 1030.83 1031.06 1031.34 1031.57 1031.59 1031.47 1031.57 1031.70 1031.81 1031.85 1031.88 1031.99 1032.14 1032.12 1032.21 1032.19 1031.97 1031.86 1031.93 1031.94 1031.90
1013.86 1014.37 1015.15 1015.84 1016.69 1017.70 1018.64 1019.63 1020.65 1021.58 1022.54 1023.44 1024.32 1025.21 1025.89 1026.69 1027.37 1028.18 1028.80 1029.20 1029.66 1030.14 1030.72 1030.97 1031.15 1031.37 1031.65 1031.79 1031.72 1031.92 1032.18 1032.29 1032.38 1032.61 1032.70 1033.02 1033.07 1033.03 1032.81 1032.72 1032.87 1033.10 1033.07 1032.78
1014.55 1015.16 1015.79 1016.58 1017.50 1018.35 1019.31 1020.15 1021.06 1022.02 1022.96 1023.71 1024.68 1025.54 1026.42 1027.18 1027.71 1028.41 1028.93 1029.29 1029.70 1029.91 1030.58 1031.01 1031.32 1031.60 1031.91 1032.33 1032.43 1032.37 1032.64 1032.82 1032.96 1033.30 1033.70 1033.73 1033.71 1033.70 1033.81 1034.03 1033.97 1033.78 1033.59 1033.31
1015.21 1015.89 1016.63 1017.41 1018.37 1019.09 1019.66 1020.64 1021.48 1022.51 1023.42 1024.04 1024.65 1025.57 1026.39 1027.31 1027.81 1028.36 1028.98 1029.36 1030.11 1030.38 1030.76 1031.22 1031.50 1031.89 1032.27 1032.59 1032.74 1032.96 1033.28 1033.59 1033.89 1034.11 1034.26 1034.35 1034.32 1034.50 1034.65 1034.57 1034.37 1034.21 1034.02 1033.79
1016.08 1016.84 1017.69 1018.39 1019.20 1020.07 1020.84 1021.31 1022.01 1022.95 1023.74 1024.53 1025.24 1025.86 1026.67 1027.53 1028.11 1028.55 1028.90 1028.92 1029.94 1030.57 1031.05 1031.53 1031.90 1032.58 1032.89 1033.09 1033.25 1033.61 1033.95 1034.24 1034.54 1034.67 1034.77 1034.93 1035.15 1035.16 1035.06 1035.00 1034.91 1034.78 1034.55 1034.26
1016.92 1017.67 1018.46 1019.16 1019.83 1020.57 1021.37 1021.86 1022.43 1022.97 1023.72 1024.46 1025.10 1025.74 1026.26 1026.92 1027.48 1027.86 1028.61 1029.38 1029.98 1030.76 1031.35 1032.04 1032.94 1033.46 1033.73 1033.65 1033.99 1034.28 1034.60 1034.95 1035.07 1035.25 1035.51 1035.70 1035.68 1035.63 1035.58 1035.53 1035.42 1035.19 1034.93 1034.63
1017.80 1018.50 1019.16 1019.96 1020.45 1021.03 1021.66 1022.32 1022.72 1023.30 1023.88 1024.54 1025.12 1025.68 1026.09 1026.94 1027.77 1028.17 1028.59 1029.42 1030.26 1031.04 1031.83 1032.78 1033.30 1033.71 1033.92 1034.25 1034.53 1034.83 1035.12 1035.33 1035.55 1035.76 1035.86 1035.94 1035.96 1036.00 1035.96 1035.96 1035.79 1035.56 1035.31 1035.05
1018.23 1018.86 1019.52 1020.12 1020.62 1021.14 1021.69 1022.30 1022.91 1023.56 1024.21 1024.76 1025.40 1025.93 1026.32 1026.87 1027.34 1028.41 1029.07 1029.93 1030.76 1031.50 1032.45 1033.44 1033.72 1034.15 1034.27 1034.65 1034.95 1035.31 1035.54 1035.73 1036.01 1036.00 1036.14 1036.20 1036.27 1036.29 1036.25 1036.22 1036.25 1035.99 1035.71 1035.40
1018.56 1019.13 1019.68 1020.08 1020.39 1020.94 1021.60 1022.23 1022.76 1023.52 1024.14 1024.91 1025.66 1026.24 1026.88 1027.48 1028.17 1028.90 1029.75 1030.58 1031.36 1032.07 1032.76 1033.47 1033.98 1034.33 1034.60 1034.95 1035.33 1035.65 1035.73 1035.83 1036.06 1036.28 1036.55 1036.47 1036.55 1036.44 1036.53 1036.48 1036.34 1036.12 1035.85 1035.43
1018.86 1019.36 1019.85 1020.35 1020.81 1021.25 1021.69 1022.15 1022.72 1023.44 1024.17 1024.84 1025.74 1026.87 1027.48 1028.14 1028.84 1029.53 1030.37 1031.19 1031.92 1032.61 1033.25 1033.90 1034.30 1034.62 1034.94 1035.22 1035.46 1035.74 1035.93 1036.14 1036.66 1036.43 1036.54 1036.61 1036.64 1036.58 1036.64 1036.56 1036.35 1036.02 1035.58 1035.12
Thickness
5474 5471 5468 5469 5464 5468 5466 5471 5457 5489 5480 5491 5486 5473 5455 5435 5417 5412 5404 5397 5391 5387 5383 5382 5380 5379 5379 5381 5383 5384 5384 5383 5380 5376 5372 5372 5372 5369 5372 5375 5378 5381 5387 5392
5442 5458 5459 5458 5448 5452 5463 5466 5464 5467 5473 5482 5462 5445 5438 5431 5419 5416 5405 5395 5388 5384 5380 5375 5373 5370 5370 5373 5374 5375 5378 5376 5377 5377 5375 5371 5369 5368 5369 5368 5372 5374 5377 5384
5455 5456 5452 5458 5453 5448 5463 5463 5465 5469 5485 5461 5449 5443 5435 5424 5419 5412 5399 5388 5380 5373 5368 5365 5362 5360 5360 5362 5363 5365 5366 5367 5368 5370 5373 5369 5367 5364 5364 5361 5361 5364 5371 5379
5445 5435 5437 5468 5461 5464 5463 5471 5465 5470 5467 5453 5444 5429 5421 5416 5414 5402 5389 5379 5370 5361 5357 5354 5351 5350 5349 5350 5352 5352 5354 5356 5358 5359 5362 5363 5361 5360 5356 5352 5353 5354 5358 5362
5428 5441 5456 5465 5470 5459 5453 5471 5473 5468 5441 5422 5413 5412 5404 5405 5402 5393 5382 5371 5363 5354 5346 5342 5340 5339 5338 5337 5338 5339 5340 5341 5344 5346 5347 5350 5351 5349 5349 5347 5349 5347 5346 5351
5415 5419 5431 5460 5451 5444 5443 5462 5443 5440 5430 5416 5413 5432 5426 5396 5389 5380 5369 5361 5353 5344 5337 5334 5330 5327 5326 5324 5325 5326 5328 5329 5330 5334 5334 5335 5338 5338 5339 5342 5341 5343 5345 5347
5419 5413 5438 5453 5442 5435 5433 5448 5429 5423 5421 5411 5420 5417 5402 5388 5376 5369 5359 5350 5339 5332 5327 5321 5318 5316 5315 5316 5315 5315 5317 5319 5319 5323 5325 5326 5326 5327 5328 5330 5333 5337 5340 5342
5417 5414 5426 5436 5431 5433 5430 5419 5415 5414 5408 5406 5398 5390 5386 5376 5366 5358 5348 5338 5328 5321 5314 5309 5306 5307 5308 5307 5306 5306 5307 5308 5308 5312 5314 5316 5318 5319 5319 5320 5320 5321 5323 5328
5434 5445 5434 5431 5433 5428 5423 5420 5413 5410 5404 5398 5387 5382 5371 5361 5354 5347 5338 5327 5318 5312 5305 5300 5299 5299 5299 5297 5298 5297 5297 5297 5297 5299 5302 5305 5307 5310 5311 5311 5312 5313 5316 5318
5423 5439 5431 5425 5421 5416 5417 5414 5410 5406 5399 5390 5382 5373 5363 5355 5345 5336 5326 5318 5312 5305 5300 5295 5293 5291 5290 5289 5290 5290 5289 5289 5287 5287 5290 5292 5294 5295 5297 5300 5303 5302 5303 5305
5421 5428 5421 5427 5421 5415 5405 5400 5398 5396 5391 5385 5378 5367 5359 5347 5335 5327 5319 5312 5305 5300 5295 5290 5286 5283 5282 5282 5283 5283 5281 5279 5279 5279 5280 5282 5282 5282 5283 5283 5286 5289 5290 5292
5430 5434 5433 5430 5416 5407 5398 5393 5390 5388 5381 5376 5371 5361 5349 5335 5328 5321 5312 5305 5299 5294 5289 5283 5279 5276 5274 5274 5275 5276 5274 5271 5270 5270 5269 5269 5270 5271 5269 5270 5273 5275 5277 5279
5428 5415 5406 5401 5400 5396 5391 5385 5381 5379 5375 5369 5360 5350 5340 5330 5322 5313 5306 5300 5294 5288 5282 5276 5271 5267 5266 5266 5265 5264 5263 5262 5261 5261 5260 5260 5260 5259 5260 5262 5262 5262 5262 5262
5410 5404 5398 5395 5395 5390 5386 5379 5374 5369 5364 5356 5349 5341 5333 5324 5314 5307 5300 5294 5287 5281 5274 5269 5263 5258 5256 5255 5254 5252 5252 5250 5251 5251 5250 5249 5248 5248 5248 5249 5251 5250 5249 5248
5401 5400 5401 5396 5389 5382 5376 5369 5364 5358 5351 5344 5338 5332 5323 5314 5305 5297 5290 5285 5278 5271 5264 5259 5255 5251 5248 5247 5246 5244 5245 5243 5242 5241 5240 5239 5239 5240 5240 5240 5239 5238 5235 5232
5395 5390 5388 5388 5383 5376 5370 5364 5358 5349 5343 5335 5329 5322 5315 5306 5296 5289 5284 5277 5272 5266 5260 5254 5249 5245 5242 5240 5239 5239 5237 5235 5233 5233 5231 5230 5229 5228 5226 5225 5223 5219 5217 5211
5388 5380 5380 5378 5376 5371 5367 5361 5353 5343 5334 5326 5318 5309 5301 5292 5285 5278 5271 5266 5261 5256 5250 5247 5242 5238 5236 5234 5233 5231 5230 5228 5223 5223 5220 5217 5215 5212 5209 5206 5203 5199 5194 5187
5395 5394 5388 5385 5376 5368 5360 5353 5345 5335 5325 5317 5306 5297 5288 5283 5280 5268 5262 5256 5250 5243 5241 5238 5235 5232 5229 5226 5225 5222 5219 5215 5212 5208 5204 5200 5196 5192 5188 5186 5182 5176 5171 5165
5387 5384 5380 5376 5369 5361 5353 5344 5335 5324 5313 5303 5295 5288 5281 5273 5267 5258 5251 5248 5245 5241 5235 5230 5228 5225 5221 5216 5214 5210 5205 5201 5197 5192 5187 5181 5177 5172 5169 5164 5158 5150 5144 5140
5376 5374 5370 5364 5357 5350 5340 5330 5322 5312 5303 5297 5286 5278 5271 5262 5257 5249 5246 5244 5241 5237 5228 5224 5219 5215 5209 5204 5200 5196 5191 5187 5182 5175 5168 5163 5158 5153 5147 5140 5135 5130 5125 5120
5366 5362 5355 5350 5344 5336 5331 5321 5312 5303 5294 5288 5284 5274 5266 5256 5250 5245 5240 5239 5228 5224 5219 5213 5209 5203 5197 5193 5188 5182 5176 5170 5164 5157 5151 5145 5141 5134 5127 5121 5116 5111 5105 5099
5354 5348 5341 5334 5329 5318 5312 5310 5303 5294 5287 5278 5270 5264 5256 5248 5240 5237 5234 5233 5222 5214 5209 5203 5196 5190 5184 5179 5173 5167 5161 5154 5147 5141 5134 5128 5121 5114 5109 5102 5096 5090 5083 5076
5343 5338 5330 5324 5320 5312 5305 5301 5295 5290 5282 5275 5268 5261 5256 5248 5241 5237 5230 5220 5213 5205 5199 5191 5183 5177 5171 5165 5158 5151 5144 5137 5130 5124 5116 5109 5103 5096 5090 5083 5076 5069 5062 5055
5330 5325 5318 5312 5308 5305 5300 5291 5288 5282 5275 5268 5261 5255 5250 5241 5231 5226 5220 5211 5203 5195 5187 5177 5171 5165 5158 5151 5144 5136 5129 5122 5115 5107 5100 5092 5086 5078 5071 5063 5055 5048 5040 5032
5323 5316 5311 5308 5306 5302 5294 5287 5280 5273 5266 5260 5253 5246 5241 5234 5229 5216 5209 5199 5191 5183 5174 5165 5159 5152 5145 5137 5129 5121 5113 5105 5098 5091 5084 5076 5068 5060 5052 5044 5035 5027 5019 5012
5318 5314 5309 5306 5303 5296 5288 5281 5275 5266 5259 5251 5243 5235 5228 5220 5212 5205 5196 5187 5179 5171 5163 5154 5146 5139 5131 5123 5114 5106 5099 5091 5083 5075 5067 5059 5050 5043 5034 5026 5018 5011 5004 4998
5311 5306 5302 5297 5292 5287 5282 5275 5268 5260 5252 5245 5235 5222 5215 5208 5200 5193 5184 5175 5166 5157 5149 5140 5132 5124 5116 5108 5100 5092 5084 5076 5067 5059 5051 5042 5034 5026 5018 5010 5003 4998 4993 4988